FENGYUN 1C DEB

Satellite information

Favourite Embed

Satellite Type and Status

DEBRISIN ORBIT

Key statistics

Satellite FENGYUN 1C DEB at a glance.

Uptime

9556

Days in orbit

Revolutions

≈ 14.0

Per day

Orbit

SSO

Sun Synchronous Orbit

Inclination

99.0

Latest

Satellite identification and parameters

Extended collection of information and parameters for FENGYUN 1C DEB.

Object identification

Identified? True

Debris? True

Object name: FENGYUN 1C DEB

International designator: 1999-025ET

Object number (NORAD): 29849

Object ID (CCSDS): 29849

Country: PEOPLES REPUBLIC OF CHINA (PRC)

Current information (Y/N): Y

RCS size: SMALL

Orbital parameters

Period: 102.547 minutes

Inclination: 99.0173 deg

SMA: 7257.285 km

Apoapsis: 940.015 km

Periapsis: 818.284 km

RAAN: 272.7546 deg

Eccentricy: 0.0083868

Argument of periapsis: 127.607 deg

Mean anomaly: 289.2502 deg

Mean motion: 14.0424059 rev/day

Mean motion (dot): 0.00001254 rev/day2

B* drag term: 0.00079196 1/REarth

Two-line elements (TLE)

Creation date: July 6, 2025, 6:05 p.m.

Reference frame: TEME

Reference center: EARTH

Epoch: July 6, 2025, 5:28 a.m. UTC

TLE line 0: 0 FENGYUN 1C DEB

TLE line 1: 1 29849U 99025ET 25187.22818249 .00001254 00000-0 79196-3 0 9993

TLE line 2: 2 29849 99.0173 272.7546 0083868 127.6070 289.2502 14.04240590941317

Live tracking on map

Real-time ground track for satellite FENGYUN 1C DEB.

In-orbit conjunctions

A list of the most updated potential collisions computed for object FENGYUN 1C DEB.

Target Orbit TCA Probability of collision Miss distance Type
FENGYUN 1C DEB SSO 2024-12-12 21:17:00 0.0001019583 229.0 (m) DEBRIS
COSMOS 886 DEB LEO 2024-09-27 05:42:04 0.0002252473 85.0 (m) DEBRIS

Associated space launch

Chinese polar orbiting meteorological satellite

FENGYUN 1C DEB was lifted into orbit during the mission ‘Long March 4B | Feng Yun 1C’, on board a Long March 4B space rocket.

The launch took place on May 10, 1999, 1:33 a.m. from Launch Complex 7.

For more information about the launch, click the button.

Launch to space Long March 4B | Feng Yun 1C
Long March 4B | Feng Yun 1C

Agency: N/A

Status: Launch Successful

Launch date: May 10, 1999, 1:33 a.m. UTC

Rocket: Long March 4B

Launch pad: Launch Complex 7

Location: Taiyuan Satellite Launch Center, People's Republic of China

...

Latest news about this satellite

There are no fresh news available about this satellite. Check back as we update our databases every day.


Newsletter sign-up

Weekly statistics, charts and insights to help you stay on top of the space industry.